Location: Bohy
(49.9380°N, 13.5753°E)
Time: 17:05:20
(UTC+00:00)

SL-14 R/B - Pass Details

Date: 19 May 2025
Orbit: 501 x 530 km, 82.4° (Epoch: 16 June)

Event Time Altitude Azimuth Distance (km) Brightness Sun altitude
Exits shadow 23:54:04 55° 191° (S) 626 3.2 -19.1°
Maximum altitude 23:54:51 89° 285° (WNW) 526 3.1 -19.1°
Drops below altitude 10° 23:58:45 10° 10° (N) 1,772 7.2 -19.0°
Sets 00:00:54 0° 11° (N) 2,670 8.5 -18.9°
